• In United Kingdom
  • List of Countries
  • For 7 days
  • Water Temperature
  • Satellite Maps
  • Weather Map
  • Weather Widgets
  • user-avatar
    Login

    Hourly Weather Satif

    Today, 20 October, Friday

    Time Temperature Precipitation Wind Pressure Humidity
    00:00 +12°C° 0 mm 4 mps 670 mmHg 79%
    01:00 +12°C° 0.5 mm 4 mps 670 mmHg 80%
    02:00 +11°C° 0.5 mm 3 mps 670 mmHg 81%
    03:00 +12°C° 0.5 mm 2 mps 670 mmHg 81%
    04:00 +12°C° 0.2 mm 2 mps 670 mmHg 82%
    05:00 +10°C° 0.2 mm 2 mps 670 mmHg 83%
    06:00 +10°C° 0 mm 2 mps 670 mmHg 83%
    07:00 +11°C° 0 mm 3 mps 670 mmHg 77%
    08:00 +12°C° 0 mm 3 mps 671 mmHg 72%
    09:00 +12°C° 0 mm 3 mps 672 mmHg 66%
    10:00 +13°C° 0 mm 3 mps 672 mmHg 64%
    11:00 +14°C° 0 mm 4 mps 672 mmHg 61%
    12:00 +14°C° 0 mm 4 mps 673 mmHg 58%
    13:00 +14°C° 0 mm 4 mps 673 mmHg 59%
    14:00 +14°C° 0 mm 4 mps 673 mmHg 60%
    15:00 +14°C° 0 mm 4 mps 673 mmHg 61%
    16:00 +14°C° 0 mm 3 mps 673 mmHg 65%
    17:00 +13°C° 0 mm 3 mps 674 mmHg 69%
    18:00 +13°C° 0 mm 3 mps 674 mmHg 73%
    19:00 +13°C° 0 mm 2 mps 674 mmHg 75%
    20:00 +13°C° 0 mm 2 mps 674 mmHg 78%
    21:00 +13°C° 0 mm 2 mps 675 mmHg 81%
    22:00 +12°C° 0 mm 1 mps 675 mmHg 83%
    23:00 +12°C° 0 mm 1 mps 675 mmHg 85%

    Tomorrow, 21 October, Saturday

    Time Temperature Precipitation Wind Pressure Humidity
    00:00 +12°C° 0 mm 1 mps 675 mmHg 87%
    01:00 +11°C° 0 mm 1 mps 675 mmHg 88%
    02:00 +11°C° 0 mm 1 mps 674 mmHg 88%
    03:00 +11°C° 0 mm 1 mps 674 mmHg 89%
    04:00 +11°C° 0 mm 1 mps 674 mmHg 89%
    05:00 +11°C° 0 mm 1 mps 675 mmHg 89%
    06:00 +10°C° 0 mm 1 mps 675 mmHg 89%
    07:00 +12°C° 0 mm 1 mps 676 mmHg 81%
    08:00 +13°C° 0 mm 1 mps 676 mmHg 74%
    09:00 +15°C° 0 mm 1 mps 677 mmHg 66%
    10:00 +16°C° 0 mm 1 mps 677 mmHg 62%
    11:00 +18°C° 0 mm 1 mps 677 mmHg 57%
    12:00 +19°C° 0 mm 1 mps 678 mmHg 53%
    13:00 +18°C° 0 mm 2 mps 677 mmHg 52%
    14:00 +19°C° 0 mm 2 mps 677 mmHg 52%
    15:00 +19°C° 0 mm 2 mps 677 mmHg 51%
    16:00 +18°C° 0 mm 2 mps 677 mmHg 56%
    17:00 +17°C° 0 mm 2 mps 677 mmHg 60%
    18:00 +17°C° 0 mm 2 mps 677 mmHg 65%
    19:00 +16°C° 0 mm 1 mps 677 mmHg 68%
    20:00 +16°C° 0 mm 1 mps 677 mmHg 71%
    21:00 +15°C° 0 mm 1 mps 677 mmHg 74%
    22:00 +14°C° 0 mm 0 mps 677 mmHg 76%
    23:00 +13°C° 0 mm 0 mps 677 mmHg 78%

    Day after tomorrow, 22 October, Sunday

    Time Temperature Precipitation Wind Pressure Humidity
    00:00 +13°C° 0 mm 0 mps 677 mmHg 79%
    01:00 +13°C° 0 mm 0 mps 676 mmHg 80%
    02:00 +12°C° 0 mm 0 mps 676 mmHg 81%
    03:00 +12°C° 0 mm 0 mps 676 mmHg 82%
    04:00 +12°C° 0 mm 0 mps 676 mmHg 82%
    05:00 +12°C° 0 mm 0 mps 676 mmHg 83%
    06:00 +11°C° 0 mm 0 mps 676 mmHg 84%
    07:00 +13°C° 0 mm 0 mps 676 mmHg 77%
    08:00 +15°C° 0 mm 1 mps 677 mmHg 69%
    09:00 +18°C° 0 mm 1 mps 678 mmHg 62%
    10:00 +19°C° 0 mm 1 mps 678 mmHg 58%
    11:00 +19°C° 0 mm 2 mps 678 mmHg 54%
    12:00 +19°C° 0 mm 2 mps 678 mmHg 50%
    13:00 +20°C° 0 mm 2 mps 677 mmHg 49%
    14:00 +20°C° 0 mm 2 mps 677 mmHg 49%
    15:00 +20°C° 0 mm 3 mps 676 mmHg 49%
    16:00 +19°C° 0 mm 3 mps 676 mmHg 55%
    17:00 +18°C° 0 mm 3 mps 676 mmHg 62%
    18:00 +17°C° 0 mm 3 mps 677 mmHg 68%
    19:00 +16°C° 0 mm 2 mps 677 mmHg 73%
    20:00 +16°C° 0 mm 2 mps 677 mmHg 77%
    21:00 +15°C° 0 mm 2 mps 677 mmHg 82%
    22:00 +15°C° 0 mm 2 mps 677 mmHg 84%
    23:00 +14°C° 0 mm 2 mps 677 mmHg 86%

    23 October, Monday

    Time Temperature Precipitation Wind Pressure Humidity
    00:00 +14°C° 0 mm 1 mps 677 mmHg 88%
    01:00 +14°C° 0.1 mm 1 mps 676 mmHg 88%
    02:00 +14°C° 0.1 mm 1 mps 676 mmHg 89%
    03:00 +13°C° 0.1 mm 1 mps 676 mmHg 89%
    04:00 +13°C° 0.1 mm 2 mps 676 mmHg 90%
    05:00 +13°C° 0.1 mm 2 mps 676 mmHg 90%
    06:00 +13°C° 0.1 mm 2 mps 676 mmHg 90%
    07:00 +14°C° 0.1 mm 2 mps 676 mmHg 85%
    08:00 +14°C° 0.1 mm 2 mps 677 mmHg 79%
    09:00 +15°C° 0.1 mm 2 mps 677 mmHg 74%
    10:00 +16°C° 0 mm 3 mps 677 mmHg 69%
    11:00 +16°C° 0 mm 3 mps 677 mmHg 64%
    12:00 +17°C° 0 mm 3 mps 677 mmHg 59%
    13:00 +17°C° 0 mm 3 mps 677 mmHg 56%
    14:00 +17°C° 0 mm 4 mps 677 mmHg 53%
    15:00 +17°C° 0 mm 4 mps 677 mmHg 50%
    16:00 +15°C° 0 mm 4 mps 677 mmHg 55%
    17:00 +14°C° 0 mm 3 mps 676 mmHg 60%
    18:00 +13°C° 0 mm 3 mps 676 mmHg 64%
    19:00 +13°C° 0 mm 2 mps 676 mmHg 68%
    20:00 +13°C° 0 mm 2 mps 677 mmHg 72%
    21:00 +12°C° 0 mm 2 mps 677 mmHg 76%
    22:00 +12°C° 0 mm 1 mps 677 mmHg 78%
    23:00 +12°C° 0 mm 1 mps 676 mmHg 80%

    24 October, Tuesday

    Time Temperature Precipitation Wind Pressure Humidity
    00:00 +11°C° 0 mm 1 mps 676 mmHg 82%
    01:00 +11°C° 0 mm 1 mps 676 mmHg 82%
    02:00 +11°C° 0 mm 1 mps 676 mmHg 82%
    03:00 +10°C° 0 mm 1 mps 676 mmHg 82%
    04:00 +10°C° 0 mm 1 mps 675 mmHg 81%
    05:00 +10°C° 0 mm 1 mps 675 mmHg 79%
    06:00 +10°C° 0 mm 1 mps 675 mmHg 78%
    07:00 +12°C° 0 mm 1 mps 676 mmHg 67%
    08:00 +13°C° 0 mm 1 mps 677 mmHg 57%
    09:00 +15°C° 0 mm 1 mps 677 mmHg 47%
    10:00 +18°C° 0 mm 1 mps 677 mmHg 41%
    11:00 +18°C° 0 mm 2 mps 677 mmHg 35%
    12:00 +19°C° 0 mm 2 mps 677 mmHg 30%
    13:00 +19°C° 0 mm 2 mps 677 mmHg 29%
    14:00 +20°C° 0 mm 3 mps 677 mmHg 29%
    15:00 +20°C° 0 mm 3 mps 676 mmHg 29%
    16:00 +19°C° 0 mm 2 mps 676 mmHg 34%
    17:00 +17°C° 0 mm 2 mps 676 mmHg 39%
    18:00 +16°C° 0 mm 1 mps 676 mmHg 44%
    19:00 +15°C° 0 mm 1 mps 676 mmHg 46%
    20:00 +15°C° 0 mm 1 mps 676 mmHg 47%
    21:00 +13°C° 0 mm 0 mps 676 mmHg 49%
    22:00 +13°C° 0 mm 0 mps 675 mmHg 48%
    23:00 +13°C° 0 mm 0 mps 675 mmHg 48%

    25 October, Wednesday

    Time Temperature Precipitation Wind Pressure Humidity
    00:00 +12°C° 0 mm 0 mps 675 mmHg 47%
    01:00 +12°C° 0 mm 0 mps 675 mmHg 47%
    02:00 +13°C° 0 mm 1 mps 674 mmHg 47%
    03:00 +13°C° 0 mm 1 mps 674 mmHg 46%
    04:00 +12°C° 0 mm 1 mps 674 mmHg 47%
    05:00 +12°C° 0 mm 1 mps 674 mmHg 47%
    06:00 +12°C° 0 mm 1 mps 674 mmHg 47%
    07:00 +14°C° 0 mm 1 mps 675 mmHg 42%
    08:00 +16°C° 0 mm 1 mps 676 mmHg 37%
    09:00 +19°C° 0 mm 1 mps 677 mmHg 31%
    10:00 +20°C° 0 mm 1 mps 677 mmHg 30%
    11:00 +19°C° 0 mm 2 mps 677 mmHg 29%
    12:00 +20°C° 0 mm 2 mps 677 mmHg 28%
    13:00 +21°C° 0 mm 2 mps 677 mmHg 29%
    14:00 +21°C° 0 mm 2 mps 676 mmHg 31%
    15:00 +21°C° 0 mm 2 mps 676 mmHg 32%
    16:00 +19°C° 0 mm 2 mps 676 mmHg 39%
    17:00 +18°C° 0 mm 2 mps 676 mmHg 46%
    18:00 +17°C° 0 mm 2 mps 676 mmHg 52%
    19:00 +16°C° 0 mm 2 mps 676 mmHg 56%
    20:00 +15°C° 0 mm 2 mps 676 mmHg 60%
    21:00 +15°C° 0 mm 1 mps 676 mmHg 63%
    22:00 +14°C° 0 mm 1 mps 676 mmHg 64%
    23:00 +14°C° 0 mm 1 mps 676 mmHg 65%
    Show more